Vertical_Velocity
3 -0 0 -1 1 0 -3 -1 -0 -1 1 -2 1 1 -1 -1 5 6 -2 -0 0 0 2 2 1 1 1 0 3 3 0 0 -1 -1 -1 1 0 -0 1 -1 -0 0 0
0 1 -0 -2 -3 -1 3 -1 2 -1 1 -0 1 -2 0 0 -0 3 3 3 -3 -4 -1 1 0 -1 -0 2 2 0 0 -1 1 0 0 1 -1 1 -1 2 -0 1 -2
-1 -0 -1 -1 1 3 -3 -2 1 -0 0 -1 2 0 4 -2 -0 0 7 0 -5 -3 -1 2 3 -0 -3 -3 -2 2 0 -1 -3 -2 -2 2 4 4 -1 3 5 2 1
-2 -2 1 1 -1 2 1 0 -1 -0 -1 -0 0 1 0 0 -1 3 -6 4 -3 -2 -1 1 -1 0 0 -0 -1 0 2 2 -0 -1 -3 -2 -1 1 11 4 3 5 7
-1 -3 1 2 0 1 2 1 0 -0 -1 1 0 2 1 0 2 -3 3 -2 0 2 -6 -0 -1 -1 2 2 1 -1 -3 2 2 2 -1 -0 0 3 2 4 2 2 1
-3 -0 -1 -1 0 0 1 -1 -0 -1 -1 -1 -1 0 1 0 3 -1 -1 5 3 2 2 -5 -2 -1 2 6 3 3 3 -1 -2 -1 -1 1 -0 -1 -1 1 5 7 5
1 -2 -1 -2 0 -1 1 1 0 -2 1 -2 -2 -1 -1 3 -1 -3 2 -2 0 2 2 0 -7 -1 -2 3 -3 1 1 1 -3 -3 3 3 -0 1 0 1 -2 3 5
-1 0 -1 -1 -1 1 1 1 -1 -1 2 0 1 0 -4 -2 4 1 -3 6 10 2 -2 -5 -1 2 -5 7 -2 1 -0 0 2 0 -3 -2 3 4 1 -2 -1 -1 -5
-4 -3 0 1 -2 -1 -1 0 1 -0 1 -1 -1 1 1 -2 -8 -5 -4 -2 -2 -6 -5 3 -4 -7 -2 3 -5 -0 -2 0 -1 2 -4 -3 -2 -1 5 2 -1 3 -4
-2 -2 -3 -3 1 0 0 1 1 0 -1 2 3 1 -1 -0 2 -0 -4 -7 -4 -10 -4 -3 -4 -2 -1 -13 2 -4 -0 3 -2 2 4 -0 -5 -3 -1 -5 2 -1 -7
0 -0 -2 -2 -1 -1 0 1 -2 -1 1 -3 -2 -0 2 4 3 3 4 -2 1 -13 4 -2 -4 -3 -6 -6 -8 -6 -5 3 3 4 -2 1 2 3 -3 30 -7 3 -4
-2 -3 -2 -2 -3 -6 -2 0 3 1 -4 -1 1 1 -3 -0 -2 2 3 -0 0 -12 1 4 -2 -3 -1 -4 -6 -9 -5 -4 -1 9 4 2 -2 -3 -3 3 17 30 -5
7 3 0 -2 2 -0 -3 -1 -1 0 3 -1 1 -2 1 -1 -1 -7 -2 -1 -4 -11 -5 1 -1 -7 -6 -8 -1 -5 -8 -10 8 0 -0 -3 -1 -1 1 2 -4 14 -6
-1 3 -1 2 -1 2 -1 -4 1 -1 1 -1 -0 -2 0 1 2 -2 -5 -1 -2 -1 -10 -2 -1 3 -13 -4 -1 -7 -10 -2 -0 -3 -1 2 -0 5 -3 -5 -1 4 3
7 3 3 -0 -4 1 0 -2 2 3 -2 0 -2 -1 0 -2 -0 1 -4 -2 1 4 -12 -11 -4 -6 5 -7 2 -1 -5 3 -8 -4 -1 4 3 -5 -9 -0 -6 -4 -9
2 0 2 6 1 1 -1 -4 -3 0 -1 0 -2 -2 0 -3 0 -1 -3 -4 3 -6 1 -1 -12 -2 -7 -4 -4 3 -5 -2 -4 -3 3 2 -1 -1 -2 -1 -1 6 16
5 3 2 -3 1 0 3 -2 -12 -2 1 -1 -4 2 1 -1 -1 -3 -3 1 -2 -3 2 -7 -6 3 -9 -3 -7 -1 -4 0 -4 0 2 -0 -2 0 2 2 7 -3 -5
5 6 6 -1 1 3 -1 -11 -10 -3 -0 -0 -4 -3 1 2 -2 -2 6 -1 -7 -3 1 -5 -6 3 -0 -8 -4 -0 -0 -5 2 -0 0 -1 -1 -0 -1 1 -1 -2 16
2 2 2 1 5 -1 1 -3 -2 1 -1 -1 -4 -2 1 2 -2 1 -0 -4 -0 -3 -5 -1 -7 -1 2 -4 -3 -3 -1 -0 3 0 -1 -1 -2 -0 4 4 3 4 -6
1 4 7 11 5 -2 -2 -12 -3 1 -2 -1 -1 -0 -1 -1 1 1 0 0 -1 0 -4 -2 -6 -9 5 1 -1 -2 2 -1 4 1 3 -2 1 1 2 6 7 6 8
1 2 6 6 5 -9 -0 -9 3 2 -1 -2 -1 2 -2 -3 1 -1 0 -3 2 -0 -7 -2 -10 -3 3 1 -5 0 -1 -1 5 -2 -2 -1 4 4 3 2 -1 1 1
13 8 3 11 -14 10 -2 2 -1 -1 -1 0 1 -1 1 -3 -2 -1 3 -2 -2 1 -6 -9 -8 2 2 1 -2 -0 -1 0 3 -0 2 1 1 -1 1 -0 3 5 6
5 10 3 -2 12 1 -2 -1 -0 1 -1 1 2 1 -2 -3 2 -1 -0 -2 1 6 -4 -2 -13 -1 3 -0 -1 -1 1 -2 -3 -3 -1 2 4 3 2 3 2 -1 -0
-0 -10 6 13 4 -1 1 -4 -3 4 -2 1 1 0 -0 -0 -2 1 -2 -3 2 -1 -9 -1 -2 -5 3 -1 -0 -1 -1 -1 -1 -1 -1 1 2 2 1 2 1 -0 3
10 3 9 10 -0 -4 -2 3 -2 1 2 0 -1 0 -1 4 1 -3 1 -1 3 -2 -9 -10 -5 -4 2 1 -0 0 -0 -3 -3 -2 0 1 0 0 -0 -1 -0 1 1
5 5 9 2 -4 0 -0 -1 -1 -1 2 -2 4 3 -0 1 -1 6 2 -2 2 2 -3 -1 -5 -7 0 2 1 0 0 -1 -1 -1 -1 -3 -1 1 1 1 0 -1 -0
Height
3148 3147 3146 3147 3147 3148 3149 3150 3151 3152 3153 3153 3155 3156 3156 3158 3159 3159 3157 3157 3157 3158 3159 3160 3161 3162 3162 3163 3163 3164 3165 3166 3166 3167 3169 3169 3171 3173 3174 3175 3175 3177 3178
3142 3141 3141 3141 3141 3142 3143 3144 3145 3145 3146 3147 3148 3148 3150 3151 3151 3151 3152 3152 3150 3149 3151 3153 3154 3155 3155 3155 3156 3156 3157 3159 3160 3161 3162 3163 3164 3166 3168 3169 3170 3171 3174
3136 3136 3135 3136 3137 3138 3137 3138 3139 3140 3140 3140 3141 3142 3144 3144 3145 3145 3147 3146 3143 3143 3145 3147 3148 3147 3147 3148 3148 3148 3148 3149 3151 3153 3154 3155 3157 3158 3160 3161 3162 3164 3166
3133 3131 3131 3132 3132 3132 3133 3134 3134 3135 3135 3135 3136 3138 3138 3139 3139 3140 3138 3139 3138 3138 3139 3140 3140 3141 3140 3140 3140 3140 3140 3141 3142 3144 3146 3148 3149 3151 3152 3154 3155 3156 3157
3128 3127 3127 3127 3127 3128 3129 3129 3130 3130 3130 3131 3132 3133 3134 3134 3135 3133 3135 3133 3135 3133 3132 3135 3133 3133 3133 3132 3131 3132 3132 3132 3133 3133 3134 3137 3139 3141 3144 3145 3147 3148 3150
3125 3124 3124 3123 3123 3123 3124 3125 3126 3126 3127 3127 3128 3129 3129 3129 3129 3128 3129 3128 3129 3129 3128 3124 3123 3123 3123 3125 3123 3122 3121 3121 3122 3123 3125 3127 3129 3131 3132 3135 3137 3139 3140
3121 3120 3120 3120 3120 3120 3120 3121 3121 3122 3123 3123 3124 3124 3124 3125 3124 3121 3123 3120 3120 3121 3121 3119 3113 3109 3115 3117 3114 3113 3113 3113 3112 3112 3111 3113 3116 3119 3122 3123 3125 3127 3130
3118 3117 3116 3115 3116 3116 3116 3117 3117 3118 3119 3119 3120 3119 3117 3118 3120 3116 3113 3116 3116 3115 3110 3108 3108 3108 3104 3104 3105 3105 3104 3103 3101 3101 3101 3102 3103 3105 3108 3112 3113 3115 3118
3113 3113 3112 3112 3112 3112 3113 3113 3113 3113 3115 3114 3114 3115 3113 3110 3112 3112 3108 3107 3108 3107 3103 3099 3097 3096 3095 3094 3090 3090 3088 3087 3086 3087 3088 3088 3090 3092 3094 3097 3099 3101 3104
3108 3108 3108 3108 3108 3108 3108 3108 3108 3108 3108 3109 3109 3109 3109 3109 3107 3103 3099 3099 3100 3096 3095 3095 3091 3086 3081 3079 3079 3077 3075 3075 3074 3073 3072 3074 3077 3079 3083 3083 3085 3088 3091
3102 3102 3102 3103 3104 3104 3103 3103 3103 3103 3103 3103 3104 3104 3103 3103 3102 3101 3097 3093 3092 3089 3085 3085 3081 3078 3075 3070 3065 3063 3062 3062 3059 3059 3059 3059 3062 3065 3070 3070 3073 3076 3078
3096 3097 3097 3097 3098 3098 3098 3098 3098 3098 3097 3098 3097 3096 3095 3094 3094 3094 3092 3090 3087 3082 3079 3076 3073 3071 3068 3062 3058 3054 3047 3045 3045 3046 3045 3045 3049 3052 3055 3060 3063 3063 3066
3088 3089 3090 3090 3091 3092 3093 3093 3092 3092 3091 3090 3090 3089 3088 3087 3086 3086 3085 3082 3079 3075 3071 3069 3068 3066 3063 3055 3051 3046 3037 3032 3032 3033 3034 3034 3035 3040 3042 3046 3050 3051 3054
3081 3081 3082 3083 3085 3085 3085 3087 3087 3086 3085 3084 3082 3082 3082 3080 3079 3077 3076 3074 3072 3068 3063 3060 3061 3058 3058 3050 3046 3038 3031 3026 3023 3020 3021 3022 3023 3026 3029 3034 3038 3039 3039
3074 3074 3075 3076 3076 3078 3078 3080 3081 3080 3079 3078 3077 3075 3074 3073 3072 3069 3067 3067 3067 3064 3060 3055 3052 3049 3048 3043 3039 3032 3025 3021 3014 3010 3010 3012 3012 3014 3017 3022 3025 3028 3033
3065 3067 3068 3069 3069 3071 3071 3072 3074 3073 3072 3071 3070 3068 3067 3066 3064 3063 3062 3061 3060 3059 3055 3052 3047 3045 3042 3037 3033 3026 3020 3016 3005 3002 3003 3004 3002 3004 3006 3012 3015 3018 3020
3057 3057 3059 3061 3062 3062 3062 3063 3066 3067 3065 3063 3063 3062 3060 3058 3058 3057 3056 3056 3054 3052 3048 3046 3043 3041 3037 3032 3027 3021 3015 3009 3001 2997 2998 2997 2996 2998 2998 3001 3005 3010 3012
3047 3049 3050 3052 3054 3053 3052 3054 3059 3058 3059 3057 3056 3055 3054 3053 3052 3052 3051 3048 3046 3045 3044 3040 3038 3036 3032 3026 3022 3018 3011 3005 2998 2994 2992 2992 2992 2993 2994 2995 2998 3001 3003
3037 3040 3041 3042 3044 3043 3044 3046 3051 3051 3051 3050 3049 3049 3049 3049 3047 3047 3045 3042 3041 3040 3038 3035 3033 3031 3028 3023 3019 3014 3009 3004 2998 2993 2989 2988 2988 2989 2991 2992 2994 2997 3001
3026 3029 3031 3032 3032 3034 3035 3040 3044 3044 3044 3044 3043 3043 3043 3044 3043 3042 3040 3037 3036 3036 3033 3031 3029 3027 3024 3020 3018 3012 3009 3003 3000 2994 2989 2987 2987 2987 2988 2989 2991 2992 2994
3014 3017 3020 3021 3024 3028 3030 3032 3036 3036 3037 3038 3037 3037 3039 3038 3038 3037 3034 3032 3031 3030 3029 3027 3025 3022 3021 3018 3015 3012 3008 3004 3002 2996 2991 2988 2987 2987 2986 2987 2987 2988 2989
3005 3008 3010 3015 3018 3021 3022 3027 3029 3029 3031 3031 3032 3033 3033 3033 3034 3032 3030 3028 3028 3026 3024 3024 3022 3019 3017 3016 3013 3010 3008 3005 3002 2998 2993 2991 2990 2989 2989 2988 2987 2987 2987
2998 3002 3006 3010 3011 3010 3015 3021 3023 3024 3026 3027 3027 3028 3028 3029 3027 3027 3026 3023 3023 3021 3020 3019 3018 3016 3014 3013 3011 3009 3007 3004 3001 2998 2995 2993 2992 2991 2992 2991 2991 2991 2991
2994 2998 3001 3002 3003 3005 3010 3015 3017 3019 3020 3020 3021 3023 3023 3023 3022 3023 3021 3019 3019 3018 3017 3016 3015 3014 3012 3010 3009 3007 3006 3004 3001 2999 2997 2995 2994 2994 2995 2995 2994 2993 2992
2988 2992 2995 2996 2998 3002 3008 3011 3013 3015 3016 3017 3018 3018 3018 3018 3019 3019 3016 3017 3017 3015 3014 3014 3014 3011 3010 3009 3007 3005 3004 3002 3000 2999 2997 2996 2996 2995 2995 2994 2994 2993 2993
2981 2984 2989 2992 2994 2999 3003 3005 3007 3010 3011 3012 3013 3014 3014 3014 3014 3014 3013 3014 3014 3012 3011 3011 3011 3010 3009 3008 3006 3004 3002 3001 2999 2999 2998 2998 2996 2995 2995 2994 2993 2992 2992